Starlink 31900

operational
NORAD ID: 59942 Int'l Des: 2024-106 Owner: SPXS Country: US Constellation: starlink
LEOCIRCULAR

About Starlink 31900

Description loading...

Live Position

Loading 3D Globe...

Upcoming Passes

Altitude History

Altitude vs Time

uPlot chart will show altitude changes over time

Two-Line Element Set

1 59942U 24106W 26033.67853906 .00002645 00000-0 11084-3 0 9994
2 59942 42.9984 169.7875 0001150 277.2084 82.8637 15.25929067 95179
Epoch: Feb 2, 2026 • Age: 21 hours

Current Status

Altitude 492.2 km
Velocity 7.62 km/s
Sub-Earth Point -19.90°S, 29.4°E
Launch Date Jun 1, 2024
Age 1.6 years
Type internet

Technical Details

Classification Payload
Mass 730.00 kg
Dry Mass 700.00 kg
Total Mass 730.00 kg
Length 0.30 m
Diameter 4.10 m
Span 29.00 m
Shape Box + pan
Manufacturer SPXS
Bus Type Starlink V2M
Phase Status In Orbit
Owner/State SPXS/US

Large Constellations

Loading constellations...